カタログに戻る

STARLINK-37810

運用中通信VLEO
NORAD 100292·PAYLOAD·🇺🇸 United States

打ち上げ Aug 11, 2026 から Cape Canaveral Space Force Station

Loading…

次のパス (今後24時間)

TLE

経年Source: Space-Track

元期: Sep 11, 2026, 12:14 UTC

1 A0292U 26183W   26254.51036600 -.00206136  00000-0 -14125-2 0  9998
2 A0292  53.1567 301.5538 0002044  62.3920 297.7307 15.74594583  4896

AllMySatでSTARLINK-37810をリアルタイム追跡

Download on the App Store